Location: Bouchavesnes-Bergen
(49.9859°N, 2.9203°E)
Time: 23:43:55
(UTC+00:00)

Envisat - Pass Details

Date: 09 February 2023
Orbit: 763 x 765 km, 98.2° (Epoch: 28 March)

Event Time Altitude Azimuth Distance (km) Brightness Sun altitude
Rises 05:16:29 0° 6° (N) 3,246 6.3 -18.6°
Reaches altitude 10° 05:19:06 10° 354° (N) 2,315 5.4 -18.2°
Enters shadow 05:23:11 27° 301° (WNW) 1,461 4.0 -17.5°
